Long Prairie, MN

3:21 PM CDT on August 21, 2017 (GMT -0500)
Long Prairie

Weather History for K14Y - April, 2013

Change the Weather History Date:

Friday, April 19, 2013

  Actual Average (KLXL) Record (KLXL)
Temperature  
Mean Temperature 30 °F -  
Max Temperature 35 °F 61 °F 87 °F (1987)
Min Temperature 24 °F 36 °F 19 °F (1983)
Degree Days  
Heating Degree Days 36    
Moisture  
Dew Point 21 °F    
Average Humidity 70    
Maximum Humidity 100    
Minimum Humidity 44    
Precipitation  
Precipitation 0.00 in - - ()
Sea Level Pressure  
Sea Level Pressure 29.76 in    
Wind  
Wind Speed 17 mph (NW)    
Max Wind Speed 24 mph    
Max Gust Speed 32 mph    
Visibility 10 miles    
Events      
Averages and records for this station are not official NWS values.
T = Trace of Precipitation, MM = Missing Value Source: NWS Daily Summary

Daily Weather History Graph

Daily Weather History Graph

Search for Another Location

Airport or City:

Trip Planner

Search our weather history database for the weather conditions in past years. The results will help you decide how hot, cold, wet, or windy it might be!

Date:

Astronomy

Apr. 19, 2013 Rise Set
Actual Time 6:25 AM CDT 8:12 PM CDT
Civil Twilight 5:54 AM CDT 8:43 PM CDT
Nautical Twilight 5:15 AM CDT 9:22 PM CDT
Astronomical Twilight 4:33 AM CDT 10:04 PM CDT
Moon 1:38 PM CDT (4/19) 3:01 AM CDT (4/19)
Length of Visible Light 14h 49m
Length of Day
13h 46m
First Quarter, 62% of the Moon is Illuminated
Apr 19
First Quarter
Apr 25
Full
May 2
Last Quarter
May 9
New
May 17
First Quarter

Hourly Weather History & Observations

Time (CDT) Temp. Windchill Dew Point Humidity Pressure Visibility Wind Dir Wind Speed Gust Speed Precip Events Conditions
12:15 AM 30.2 °F 18.5 °F 28.4 °F 93% 29.64 in - NW 17.3 mph 26.5 mph N/A   Unknown
12:35 AM 30.2 °F 18.5 °F 28.4 °F 93% 29.63 in - NW 17.3 mph 25.3 mph N/A   Overcast
12:55 AM 30.2 °F 18.1 °F 28.4 °F 93% 29.63 in - NW 18.4 mph 24.2 mph N/A   Overcast
1:15 AM 28.4 °F 16.6 °F 28.4 °F 100% 29.63 in - NW 16.1 mph 23.0 mph N/A   Overcast
1:35 AM 28.4 °F 15.4 °F 26.6 °F 93% 29.62 in - NW 19.6 mph 27.6 mph N/A   Overcast
1:55 AM 28.4 °F 15.8 °F 26.6 °F 93% 29.62 in - NW 18.4 mph 25.3 mph N/A   Overcast
2:15 AM 28.4 °F 16.2 °F 26.6 °F 93% 29.61 in - NW 17.3 mph 24.2 mph N/A   Overcast
2:35 AM 28.4 °F 16.2 °F 26.6 °F 93% 29.61 in - NW 17.3 mph 24.2 mph N/A   Overcast
2:55 AM 28.4 °F 15.8 °F 26.6 °F 93% 29.61 in - NW 18.4 mph 25.3 mph N/A   Unknown
3:15 AM 28.4 °F 15.8 °F 26.6 °F 93% 29.61 in - NW 18.4 mph 24.2 mph N/A   Overcast
3:35 AM 28.4 °F 17.0 °F 26.6 °F 93% 29.61 in - NW 15.0 mph 21.9 mph N/A   Overcast
3:55 AM 28.4 °F 15.8 °F 26.6 °F 93% 29.61 in - NW 18.4 mph 26.5 mph N/A   Overcast
4:15 AM 28.4 °F 15.4 °F 26.6 °F 93% 29.62 in - NW 19.6 mph 24.2 mph N/A   Unknown
4:35 AM 28.4 °F 15.1 °F 26.6 °F 93% 29.62 in - NW 20.7 mph 26.5 mph N/A   Overcast
4:55 AM 28.4 °F 16.6 °F 24.8 °F 86% 29.62 in - NW 16.1 mph 25.3 mph N/A   Overcast
5:15 AM 28.4 °F 17.0 °F 24.8 °F 86% 29.62 in - NW 15.0 mph 25.3 mph N/A   Overcast
5:55 AM 28.4 °F 15.8 °F 23.0 °F 80% 29.63 in - NW 18.4 mph 24.2 mph N/A   Overcast
6:15 AM 28.4 °F 16.6 °F 23.0 °F 80% 29.63 in - NW 16.1 mph 24.2 mph N/A   Overcast
6:35 AM 28.4 °F 16.2 °F 23.0 °F 80% 29.64 in - NW 17.3 mph 21.9 mph N/A   Overcast
6:55 AM 28.4 °F 16.2 °F 23.0 °F 80% 29.65 in - NW 17.3 mph 26.5 mph N/A   Overcast
7:15 AM 28.4 °F 17.0 °F 21.2 °F 74% 29.65 in - NW 15.0 mph 23.0 mph N/A   Mostly Cloudy
7:35 AM 28.4 °F 17.5 °F 21.2 °F 74% 29.66 in - NW 13.8 mph 20.7 mph N/A   Scattered Clouds
7:55 AM 28.4 °F 17.0 °F 21.2 °F 74% 29.66 in - NW 15.0 mph 21.9 mph N/A   Overcast
8:15 AM 28.4 °F 16.6 °F 21.2 °F 74% 29.66 in - NW 16.1 mph 21.9 mph N/A   Mostly Cloudy
8:35 AM 28.4 °F 17.0 °F 21.2 °F 74% 29.67 in - NW 15.0 mph 21.9 mph N/A   Mostly Cloudy
8:55 AM 28.4 °F 16.6 °F 21.2 °F 74% 29.67 in - NNW 16.1 mph 21.9 mph N/A   Mostly Cloudy
9:15 AM 30.2 °F 18.9 °F 21.2 °F 69% 29.68 in - NW 16.1 mph 26.5 mph N/A   Mostly Cloudy
9:35 AM 30.2 °F 18.1 °F 21.2 °F 69% 29.68 in - NW 18.4 mph 24.2 mph N/A   Mostly Cloudy
9:55 AM 30.2 °F 18.1 °F 21.2 °F 69% 29.69 in - NW 18.4 mph 26.5 mph N/A   Overcast
10:15 AM 30.2 °F 18.1 °F 21.2 °F 69% 29.70 in - NW 18.4 mph 26.5 mph N/A   Overcast
10:35 AM 30.2 °F 17.1 °F 21.2 °F 69% 29.70 in - NW 21.9 mph 26.5 mph N/A   Overcast
10:55 AM 32.0 °F 21.2 °F 21.2 °F 64% 29.71 in - NW 16.1 mph 25.3 mph N/A   Overcast
11:15 AM 30.2 °F 17.4 °F 21.2 °F 69% 29.71 in 10.0 mi NW 20.7 mph 31.1 mph N/A   Mostly Cloudy
11:35 AM 32.0 °F 20.8 °F 21.2 °F 64% 29.72 in 10.0 mi NNW 17.3 mph 32.2 mph N/A   Mostly Cloudy
11:55 AM 32.0 °F 18.9 °F 21.2 °F 64% 29.72 in 7.0 mi NW 24.2 mph 32.2 mph N/A   Mostly Cloudy
12:15 PM 32.0 °F 19.8 °F 21.2 °F 64% 29.73 in 10.0 mi NW 20.7 mph 28.8 mph N/A   Mostly Cloudy
12:35 PM 32.0 °F 20.5 °F 21.2 °F 64% 29.74 in 10.0 mi NW 18.4 mph 24.2 mph N/A   Overcast
12:55 PM 32.0 °F 19.8 °F 21.2 °F 64% 29.75 in 10.0 mi NW 20.7 mph 27.6 mph N/A   Mostly Cloudy
1:15 PM 33.8 °F 22.5 °F 21.2 °F 60% 29.76 in 10.0 mi NW 19.6 mph 23.0 mph N/A   Mostly Cloudy
1:35 PM 33.8 °F 22.2 °F 19.4 °F 56% 29.77 in 10.0 mi NW 20.7 mph 26.5 mph N/A   Overcast
1:55 PM 33.8 °F 22.8 °F 19.4 °F 56% 29.78 in 10.0 mi NNW 18.4 mph 24.2 mph N/A   Overcast
2:15 PM 33.8 °F 24.3 °F 19.4 °F 56% 29.78 in 10.0 mi NNW 13.8 mph 18.4 mph N/A   Mostly Cloudy
2:35 PM 33.8 °F 23.9 °F 19.4 °F 56% 29.79 in 10.0 mi NW 15.0 mph 25.3 mph N/A   Mostly Cloudy
2:55 PM 33.8 °F 23.9 °F 19.4 °F 56% 29.79 in 10.0 mi NW 15.0 mph 24.2 mph N/A   Mostly Cloudy
3:15 PM 33.8 °F 23.9 °F 19.4 °F 56% 29.80 in 10.0 mi NW 15.0 mph 26.5 mph N/A   Scattered Clouds
3:35 PM 33.8 °F 22.2 °F 17.6 °F 52% 29.81 in 10.0 mi NW 20.7 mph 25.3 mph N/A   Scattered Clouds
3:55 PM 33.8 °F 22.5 °F 17.6 °F 52% 29.81 in 10.0 mi NW 19.6 mph 27.6 mph N/A   Scattered Clouds
4:15 PM 35.6 °F 25.5 °F 15.8 °F 44% 29.82 in 10.0 mi NW 17.3 mph 24.2 mph N/A   Scattered Clouds
4:35 PM 35.6 °F 26.2 °F 15.8 °F 44% 29.82 in 10.0 mi NW 15.0 mph 20.7 mph N/A   Clear
4:55 PM 33.8 °F 24.8 °F 14.0 °F 44% 29.83 in 10.0 mi NW 12.7 mph 24.2 mph N/A   Clear
5:15 PM 33.8 °F 22.8 °F 19.4 °F 56% 29.84 in 10.0 mi West 18.4 mph 24.2 mph N/A   Scattered Clouds
5:35 PM 33.8 °F 22.5 °F 19.4 °F 56% 29.85 in 10.0 mi WNW 19.6 mph 23.0 mph N/A   Scattered Clouds
5:55 PM 33.8 °F 23.5 °F 19.4 °F 56% 29.86 in 10.0 mi WNW 16.1 mph 21.9 mph N/A   Clear
6:15 PM 33.8 °F 23.5 °F 17.6 °F 52% 29.87 in 10.0 mi WNW 16.1 mph 24.2 mph N/A   Clear
6:35 PM 32.0 °F 20.8 °F 17.6 °F 55% 29.88 in 10.0 mi WNW 17.3 mph 24.2 mph N/A   Clear
6:55 PM 32.0 °F 20.8 °F 15.8 °F 51% 29.89 in 10.0 mi WNW 17.3 mph 23.0 mph N/A   Clear
7:15 PM 32.0 °F 22.1 °F 17.6 °F 55% 29.89 in 10.0 mi WNW 13.8 mph 23.0 mph N/A   Clear
7:35 PM 32.0 °F 21.6 °F 17.6 °F 55% 29.90 in 10.0 mi WNW 15.0 mph - N/A   Clear
7:55 PM 32.0 °F 22.1 °F 15.8 °F 51% 29.91 in 10.0 mi WNW 13.8 mph - N/A   Clear
8:15 PM 30.2 °F 20.8 °F 15.8 °F 55% 29.92 in 10.0 mi West 11.5 mph 17.3 mph N/A   Clear
8:35 PM 30.2 °F 20.2 °F 17.6 °F 60% 29.93 in 10.0 mi West 12.7 mph - N/A   Clear
8:55 PM 28.4 °F 18.0 °F 19.4 °F 69% 29.94 in 10.0 mi West 12.7 mph - N/A   Clear
9:15 PM 28.4 °F 18.0 °F 19.4 °F 69% 29.95 in 10.0 mi West 12.7 mph - N/A   Clear
9:35 PM 28.4 °F 18.0 °F 19.4 °F 69% 29.96 in 10.0 mi West 12.7 mph - N/A   Clear
9:55 PM 28.4 °F 18.5 °F 19.4 °F 69% 29.97 in 10.0 mi WNW 11.5 mph - N/A   Clear
10:15 PM 26.6 °F 16.2 °F 19.4 °F 74% 29.97 in 10.0 mi West 11.5 mph - N/A   Clear
10:35 PM 26.6 °F 16.2 °F 19.4 °F 74% 29.98 in 10.0 mi WNW 11.5 mph - N/A   Clear
10:55 PM 26.6 °F 16.2 °F 19.4 °F 74% 29.98 in 10.0 mi WNW 11.5 mph 17.3 mph N/A   Clear
11:15 PM 26.6 °F 15.7 °F 19.4 °F 74% 29.99 in 10.0 mi WNW 12.7 mph - N/A   Clear
11:35 PM 24.8 °F 14.6 °F 19.4 °F 80% 30.00 in 10.0 mi WNW 10.4 mph - N/A   Clear
11:55 PM 24.8 °F 15.3 °F 17.6 °F 74% 30.01 in 10.0 mi WNW 9.2 mph - N/A   Clear